Time,TemperatureF,DewpointF,PressureIn,WindDirection,WindDirectionDegrees,WindSpeedMPH,WindSpeedGustMPH,Humidity,HourlyPrecipIn,Conditions,Clouds,dailyrainin,SoftwareType,DateUTC
2013-04-05 00:00:00,35.1,34.3,30.01,NNW,338,3.0,12.0,97,0.00,,OVC,0.00,VWS V14.01,2013-04-05 04:00:00,
2013-04-05 01:00:00,35.1,34.3,30.01,NNW,338,2.0,10.0,97,0.00,,OVC,0.00,VWS V14.01,2013-04-05 05:00:00,
2013-04-05 02:00:00,35.6,34.6,30.01,North,0,3.0,12.0,96,0.00,,OVC,0.00,VWS V14.01,2013-04-05 06:00:00,
2013-04-05 03:00:00,35.6,34.8,30.02,North,0,2.0,8.0,97,0.00,,OVC,0.00,VWS V14.01,2013-04-05 07:00:00,
2013-04-05 04:00:00,36.7,35.7,29.98,North,0,4.0,13.0,96,0.00,,OVC,0.00,VWS V14.01,2013-04-05 08:00:00,
2013-04-05 05:00:00,37.4,36.1,29.95,North,0,6.0,16.0,95,0.00,,OVC,0.00,VWS V14.01,2013-04-05 09:00:00,
2013-04-05 06:00:00,38.4,37.1,29.95,West,270,5.0,17.0,95,0.00,,OVC,0.00,VWS V14.01,2013-04-05 10:00:00,
2013-04-05 07:00:00,36.6,35.3,30.01,SW,225,1.0,16.0,95,0.00,,OVC,0.00,VWS V14.01,2013-04-05 11:00:00,
2013-04-05 08:00:00,37.3,36.3,30.04,SW,225,0.0,4.0,96,0.00,,OVC,0.00,VWS V14.01,2013-04-05 12:00:00,
2013-04-05 09:00:00,41.0,39.1,30.03,SSW,202,2.0,14.0,93,0.00,,OVC,0.00,VWS V14.01,2013-04-05 13:00:00,
2013-04-05 10:00:00,42.5,39.2,30.01,SSW,202,4.0,18.0,88,0.00,,OVC,0.00,VWS V14.01,2013-04-05 14:00:00,
2013-04-05 11:00:00,45.6,40.7,30.05,South,180,4.0,18.0,83,0.00,,OVC,0.00,VWS V14.01,2013-04-05 15:00:00,
2013-04-05 12:00:00,48.9,42.3,30.05,SW,225,3.0,16.0,78,0.00,,OVC,0.00,VWS V14.01,2013-04-05 16:00:00,
2013-04-05 13:00:00,51.3,42.2,30.06,SW,225,2.0,14.0,71,0.00,,OVC,0.00,VWS V14.01,2013-04-05 17:00:00,
2013-04-05 14:00:00,54.1,43.0,30.04,NNE,22,2.0,10.0,66,0.00,,OVC,0.00,VWS V14.01,2013-04-05 18:00:00,
2013-04-05 15:00:00,56.3,43.5,30.02,WNW,292,2.0,8.0,62,0.00,,OVC,0.00,VWS V14.01,2013-04-05 19:00:00,
2013-04-05 16:00:00,57.5,34.0,30.02,West,270,2.0,10.0,41,0.00,,OVC,0.00,VWS V14.01,2013-04-05 20:00:00,
2013-04-05 17:00:00,58.2,26.9,30.01,NE,45,3.0,14.0,30,0.00,,OVC,0.00,VWS V14.01,2013-04-05 21:00:00,
2013-04-05 18:00:00,57.3,31.3,30.02,SSW,202,3.0,13.0,37,0.00,,OVC,0.00,VWS V14.01,2013-04-05 22:00:00,
2013-04-05 19:00:00,55.5,33.4,30.03,SSW,202,2.0,10.0,43,0.00,,OVC,0.00,VWS V14.01,2013-04-05 23:00:00,
2013-04-05 20:00:00,52.6,34.5,30.05,SSW,202,2.0,13.0,50,0.00,,OVC,0.00,VWS V14.01,2013-04-06 00:00:00,
2013-04-05 21:00:00,51.9,35.3,30.08,South,180,4.0,17.0,53,0.00,,OVC,0.00,VWS V14.01,2013-04-06 01:00:00,
2013-04-05 22:00:00,50.8,34.8,30.09,SW,225,3.0,14.0,54,0.00,,OVC,0.00,VWS V14.01,2013-04-06 02:00:00,
2013-04-05 23:00:00,49.5,35.3,30.10,SSW,202,1.0,8.0,58,0.00,,OVC,0.00,VWS V14.01,2013-04-06 03:00:00,